Regional Weather Roundup
Issued by NWS

Home | Current Version | Previous Version | Graphics & Text | Print | Product List | Glossary On
Versions: 1 2 3 4 5 6 7 8 9 10 11 12 13 14 15 16 17 18 19 20 21 22 23 24 25 26 27 28 29 30 31 32 33 34 35 36 37 38 39 40 41 42 43 44 45 46 47 48 49 50
000
ASUS43 KOAX 201610
RWRNE

WEATHER ROUNDUP FOR NEBRASKA
NATIONAL WEATHER SERVICE OMAHA NE
1100 AM CDT SUN APR 20 2014

NOTES: SATELLITE DATA IS BEING USED TO AUGMENT CLOUD COVER ABOVE
       12000 FEET.
       "FAIR" INDICATES FEW OR NO CLOUDS BELOW 12,000 FEET WITH NO
       SIGNIFICANT WEATHER AND/OR OBSTRUCTIONS TO VISIBILITY.

  * THESE STATIONS DO NOT REPORT WEATHER SUCH AS RAIN...SNOW OR FOG.

NEZ001>004-019>022-054>056-201700-
NEBRASKA PANHANDLE

CITY           SKY/WX    TMP DP  RH WIND       PRES   REMARKS
SCOTTSBLUFF    SUNNY     65  42  43 SW5       30.01S
ALLIANCE       SUNNY     66  43  43 SW12      29.99S
CHADRON        SUNNY     66  44  45 W8        29.95R
KIMBALL        CLOUDY    65  35  32 NW12      30.04S
SIDNEY         PTSUNNY   63  44  50 S10       30.05S
$$

NEZ057>060-069>072-079>082-201700-
SOUTHWEST NEBRASKA

CITY           SKY/WX    TMP DP  RH WIND       PRES   REMARKS
NORTH PLATTE   MOSUNNY   63  45  51 VRB3      30.02S
IMPERIAL         N/A     61  47  59 MISG      30.03R
LEXINGTON      PTSUNNY   59  46  60 CALM      30.01R
MCCOOK         PTSUNNY   59  50  72 VRB5      30.01S
OGALLALA       SUNNY     63  45  52 CALM      30.02S
$$

NEZ005>010-023>029-035>040-094-201700-
NORTH CENTRAL NEBRASKA

CITY           SKY/WX    TMP DP  RH WIND       PRES   REMARKS
VALENTINE      SUNNY     66  39  37 S13       29.98S
AINSWORTH      SUNNY     67  42  40 SE10      29.99S
BROKEN BOW     CLOUDY    66  47  50 SE7       30.00S
O`NEILL        SUNNY     67  37  32 E6        29.99S
ORD            MOSUNNY   68  44  42 N6        29.98F
THEDFORD       SUNNY     67  42  40 S10       30.02S
$$

NEZ041-046>049-061>064-073>077-083>087-201700-
SOUTH CENTRAL NEBRASKA

CITY           SKY/WX    TMP DP  RH WIND       PRES   REMARKS
GRAND ISLAND   PTSUNNY   70  51  51 W9        29.99F
AURORA         MOSUNNY   70  51  50 SW12      29.99S
HASTINGS       MOSUNNY   70  50  49 SW12G17   29.99S
HEBRON         PTSUNNY   73  51  47 SW15G22   30.01R
HOLDREGE       PTSUNNY   65  50  58 SW3       30.00S
KEARNEY *      PTSUNNY   66  50  55 W7        30.00F
YORK           MOSUNNY   72  52  49 SW14      29.99S
$$

NEZ011>018-030>034-042>045-201700-
NORTHEAST NEBRASKA

CITY           SKY/WX    TMP DP  RH WIND       PRES   REMARKS
NORFOLK        MOSUNNY   66  49  54 S7        29.97R
ALBION         MOSUNNY   62  44  51 CALM      29.99S
BLAIR          MOSUNNY   71  50  47 S13       30.00S
COLUMBUS *     MOSUNNY   64  54  68 SW7       29.99S
FREMONT        MOSUNNY   73  51  45 SW9       29.99S
TEKAMAH        PTSUNNY   72  50  45 VRB5      29.98R
$$

NEZ050>053-065>068-078-088>093-201700-
SOUTHEAST NEBRASKA

CITY           SKY/WX    TMP DP  RH WIND       PRES   REMARKS
LINCOLN        PTSUNNY   74  51  44 SW13      30.00R
OMAHA EPPLEY   CLOUDY    73  51  46 SW10      29.99S
BEATRICE       PTSUNNY   71  51  48 SW14      30.00S
FALLS CITY     PTSUNNY   75  53  46 SW20      30.02R
NEBRASKA CITY  PTSUNNY   74  51  44 SW16G22   30.01R
PLATTSMOUTH    PTSUNNY   72  48  42 S12       30.01S
$$

NEZ044-045-051>053-067-201700-
OMAHA AREA

CITY           SKY/WX    TMP DP  RH WIND       PRES   REMARKS
OMAHA EPPLEY   CLOUDY    73  51  46 SW10      29.99S
BLAIR          MOSUNNY   71  50  47 S13       30.00S
FREMONT        MOSUNNY   73  51  45 SW9       29.99S
MILLARD        MOSUNNY   71  51  49 SW6       30.00R
OFFUTT AFB     MOSUNNY   73  53  48 VRB6      30.00S
PLATTSMOUTH    PTSUNNY   72  48  42 S12       30.01S
WAHOO          FAIR      73  48  41 SW13      29.99R
$$



USA.gov is the U.S. government's official web portal to all federal, state and local government web resources and services.